EN

Hourly Weather Dziurkow

Today, 28 October, Wednesday

Time Temperature Precipitation Wind Pressure Humidity
00:00 +12°C° 0 mm 2 mps 747 mmHg 89%
01:00 +10°C° 0 mm 2 mps 748 mmHg 90%
02:00 +11°C° 0 mm 1 mps 748 mmHg 91%
03:00 +11°C° 0 mm 1 mps 748 mmHg 93%
04:00 +11°C° 0 mm 1 mps 747 mmHg 94%
05:00 +10°C° 0 mm 1 mps 748 mmHg 94%
06:00 +9°C° 0 mm 0 mps 748 mmHg 94%
07:00 +9°C° 0 mm 0 mps 748 mmHg 94%
08:00 +12°C° 0 mm 1 mps 748 mmHg 89%
09:00 +13°C° 0 mm 1 mps 748 mmHg 83%
10:00 +15°C° 0 mm 2 mps 749 mmHg 78%
11:00 +16°C° 0 mm 2 mps 748 mmHg 75%
12:00 +16°C° 0 mm 2 mps 748 mmHg 72%
13:00 +17°C° 0 mm 2 mps 748 mmHg 69%
14:00 +16°C° 0 mm 2 mps 748 mmHg 73%
15:00 +16°C° 0 mm 2 mps 748 mmHg 77%
16:00 +15°C° 0 mm 2 mps 748 mmHg 81%
17:00 +14°C° 0 mm 2 mps 748 mmHg 83%
18:00 +13°C° 0 mm 2 mps 748 mmHg 85%
19:00 +13°C° 0 mm 2 mps 748 mmHg 87%
20:00 +13°C° 0 mm 2 mps 748 mmHg 88%
21:00 +12°C° 0 mm 2 mps 748 mmHg 89%
22:00 +12°C° 0 mm 2 mps 748 mmHg 90%
23:00 +10°C° 0 mm 2 mps 749 mmHg 89%

Tomorrow, 29 October, Thursday

Time Temperature Precipitation Wind Pressure Humidity
00:00 +10°C° 0 mm 2 mps 749 mmHg 88%
01:00 +9°C° 0 mm 2 mps 749 mmHg 87%
02:00 +9°C° 0 mm 2 mps 749 mmHg 86%
03:00 +9°C° 0 mm 2 mps 748 mmHg 85%
04:00 +9°C° 0 mm 2 mps 748 mmHg 84%
05:00 +9°C° 0 mm 2 mps 748 mmHg 84%
06:00 +9°C° 0 mm 2 mps 749 mmHg 85%
07:00 +8°C° 0 mm 2 mps 749 mmHg 85%
08:00 +10°C° 0 mm 3 mps 749 mmHg 79%
09:00 +11°C° 0 mm 3 mps 749 mmHg 73%
10:00 +13°C° 0 mm 3 mps 749 mmHg 66%
11:00 +13°C° 0 mm 4 mps 748 mmHg 63%
12:00 +14°C° 0 mm 4 mps 748 mmHg 60%
13:00 +14°C° 0 mm 4 mps 748 mmHg 56%
14:00 +14°C° 0 mm 4 mps 748 mmHg 61%
15:00 +13°C° 0 mm 3 mps 747 mmHg 66%
16:00 +12°C° 0 mm 3 mps 747 mmHg 71%
17:00 +12°C° 0.1 mm 3 mps 747 mmHg 73%
18:00 +11°C° 0.1 mm 3 mps 747 mmHg 74%
19:00 +11°C° 0.1 mm 4 mps 747 mmHg 76%
20:00 +10°C° 0.4 mm 5 mps 748 mmHg 77%
21:00 +9°C° 0.4 mm 6 mps 748 mmHg 79%
22:00 +9°C° 0.4 mm 6 mps 748 mmHg 81%
23:00 +8°C° 0 mm 6 mps 749 mmHg 82%

Day after tomorrow, 30 October, Friday

Time Temperature Precipitation Wind Pressure Humidity
00:00 +8°C° 0 mm 6 mps 749 mmHg 82%
01:00 +7°C° 0 mm 5 mps 749 mmHg 82%
02:00 +7°C° 0 mm 5 mps 750 mmHg 84%
03:00 +6°C° 0 mm 5 mps 750 mmHg 85%
04:00 +6°C° 0 mm 5 mps 751 mmHg 87%
05:00 +5°C° 0 mm 4 mps 751 mmHg 88%
06:00 +5°C° 0 mm 4 mps 751 mmHg 89%
07:00 +5°C° 0 mm 4 mps 751 mmHg 91%
08:00 +6°C° 0 mm 4 mps 751 mmHg 85%
09:00 +7°C° 0 mm 4 mps 752 mmHg 80%
10:00 +8°C° 0 mm 4 mps 752 mmHg 75%
11:00 +10°C° 0 mm 4 mps 751 mmHg 71%
12:00 +10°C° 0 mm 4 mps 751 mmHg 67%
13:00 +11°C° 0 mm 4 mps 751 mmHg 64%
14:00 +10°C° 0 mm 3 mps 751 mmHg 65%
15:00 +10°C° 0 mm 3 mps 750 mmHg 67%
16:00 +9°C° 0 mm 2 mps 750 mmHg 69%
17:00 +9°C° 0.4 mm 2 mps 750 mmHg 74%
18:00 +8°C° 0.4 mm 2 mps 750 mmHg 80%
19:00 +8°C° 0.4 mm 2 mps 749 mmHg 85%
20:00 +7°C° 1.9 mm 3 mps 749 mmHg 87%
21:00 +6°C° 1.9 mm 4 mps 749 mmHg 89%
22:00 +6°C° 1.9 mm 5 mps 749 mmHg 90%
23:00 +6°C° 0.3 mm 4 mps 749 mmHg 89%

31 October, Saturday

Time Temperature Precipitation Wind Pressure Humidity
00:00 +7°C° 0.3 mm 3 mps 750 mmHg 87%
01:00 +7°C° 0.3 mm 2 mps 750 mmHg 85%
02:00 +6°C° 0 mm 2 mps 751 mmHg 86%
03:00 +6°C° 0 mm 2 mps 751 mmHg 87%
04:00 +6°C° 0 mm 2 mps 752 mmHg 88%
05:00 +5°C° 0 mm 2 mps 753 mmHg 89%
06:00 +5°C° 0 mm 2 mps 753 mmHg 91%
07:00 +5°C° 0 mm 2 mps 754 mmHg 93%
08:00 +6°C° 0 mm 2 mps 754 mmHg 88%
09:00 +7°C° 0 mm 2 mps 755 mmHg 83%
10:00 +9°C° 0 mm 2 mps 756 mmHg 78%
11:00 +9°C° 0 mm 2 mps 756 mmHg 74%
12:00 +10°C° 0 mm 2 mps 756 mmHg 71%
13:00 +12°C° 0 mm 2 mps 756 mmHg 67%
14:00 +10°C° 0 mm 2 mps 756 mmHg 71%
15:00 +9°C° 0 mm 2 mps 756 mmHg 74%
16:00 +9°C° 0 mm 1 mps 756 mmHg 78%
17:00 +9°C° 0 mm 1 mps 756 mmHg 81%
18:00 +8°C° 0 mm 1 mps 757 mmHg 84%
19:00 +8°C° 0 mm 1 mps 757 mmHg 86%
20:00 +7°C° 0 mm 1 mps 757 mmHg 88%
21:00 +7°C° 0 mm 1 mps 757 mmHg 89%
22:00 +6°C° 0 mm 1 mps 757 mmHg 91%
23:00 +6°C° 0 mm 1 mps 757 mmHg 92%

1 November, Sunday

Time Temperature Precipitation Wind Pressure Humidity
00:00 +6°C° 0 mm 1 mps 757 mmHg 92%
01:00 +6°C° 0 mm 1 mps 757 mmHg 93%
02:00 +6°C° 0 mm 1 mps 757 mmHg 93%
03:00 +4°C° 0 mm 2 mps 757 mmHg 93%
04:00 +4°C° 0 mm 2 mps 757 mmHg 94%
05:00 +4°C° 0 mm 2 mps 757 mmHg 94%
06:00 +4°C° 0 mm 2 mps 757 mmHg 94%
07:00 +4°C° 0 mm 2 mps 757 mmHg 94%
08:00 +4°C° 0 mm 3 mps 757 mmHg 88%
09:00 +7°C° 0 mm 3 mps 756 mmHg 83%
10:00 +8°C° 0 mm 3 mps 756 mmHg 77%
11:00 +8°C° 0 mm 4 mps 756 mmHg 74%
12:00 +10°C° 0 mm 4 mps 756 mmHg 71%
13:00 +11°C° 0 mm 4 mps 755 mmHg 69%
14:00 +10°C° 0 mm 3 mps 755 mmHg 73%
15:00 +9°C° 0 mm 3 mps 755 mmHg 78%
16:00 +8°C° 0 mm 3 mps 755 mmHg 82%
17:00 +8°C° 0 mm 3 mps 754 mmHg 85%
18:00 +7°C° 0 mm 3 mps 754 mmHg 87%
19:00 +7°C° 0 mm 3 mps 754 mmHg 90%
20:00 +5°C° 0 mm 3 mps 754 mmHg 90%
21:00 +5°C° 0 mm 3 mps 754 mmHg 90%
22:00 +5°C° 0 mm 4 mps 754 mmHg 91%
23:00 +5°C° 0 mm 3 mps 754 mmHg 90%

2 November, Monday

Time Temperature Precipitation Wind Pressure Humidity
00:00 +4°C° 0 mm 3 mps 754 mmHg 89%
01:00 +4°C° 0 mm 3 mps 754 mmHg 89%
02:00 +4°C° 0 mm 3 mps 754 mmHg 87%
03:00 +4°C° 0 mm 3 mps 754 mmHg 85%
04:00 +4°C° 0 mm 3 mps 753 mmHg 83%
05:00 +4°C° 0 mm 3 mps 754 mmHg 82%
06:00 +4°C° 0 mm 3 mps 754 mmHg 81%
07:00 +4°C° 0 mm 3 mps 754 mmHg 80%
08:00 +5°C° 0 mm 4 mps 754 mmHg 74%
09:00 +7°C° 0 mm 4 mps 754 mmHg 68%
10:00 +8°C° 0 mm 4 mps 754 mmHg 62%
11:00 +10°C° 0 mm 4 mps 754 mmHg 60%
12:00 +11°C° 0 mm 4 mps 754 mmHg 58%
13:00 +12°C° 0 mm 4 mps 754 mmHg 56%
14:00 +11°C° 0 mm 4 mps 753 mmHg 60%
15:00 +11°C° 0 mm 3 mps 753 mmHg 64%
16:00 +10°C° 0 mm 3 mps 753 mmHg 68%
17:00 +9°C° 0 mm 3 mps 753 mmHg 70%
18:00 +9°C° 0 mm 3 mps 754 mmHg 72%
19:00 +9°C° 0 mm 3 mps 754 mmHg 74%
20:00 +8°C° 0 mm 3 mps 754 mmHg 75%
21:00 +8°C° 0 mm 3 mps 754 mmHg 77%
22:00 +8°C° 0 mm 3 mps 754 mmHg 78%
23:00 +8°C° 0 mm 3 mps 754 mmHg 78%
Show more